Location: Aufkirchen
(47.9603°N, 11.3653°E)
Time: 03:14:47
(UTC+01:00)

Vanguard 3 - Pass Details

Date: 26 November 2020
Orbit: 508 x 3262 km, 33.3° (Epoch: 23 January)

Event Time Altitude Azimuth Distance (km) Brightness Sun altitude
Rises 23:31:17 0° 236° (SW) 2,813 - -62.5°
Reaches altitude 10° 23:33:54 10° 215° (SW) 2,112 - -62.6°
Maximum altitude 23:37:09 18° 172° (S) 1,926 - -62.7°
Drops below altitude 10° 23:41:26 10° 131° (SE) 2,900 - -62.9°
Sets 23:45:54 0° 116° (ESE) 4,399 - -63.0°
